Regional Weather Roundup
Issued by NWS Newport/Morehead, NC

Current Version | Previous Version | Graphics & Text | Print | Product List | Glossary Off
Versions: 1 2 3 4 5 6 7 8 9 10 11 12 13 14 15 16 17 18 19 20 21 22 23 24 25 26 27 28 29 30 31 32 33 34 35 36 37 38 39 40 41 42 43 44 45 46 47 48 49 50
000 ASUS42 KMHX 241913 RWRMHX WEATHER ROUNDUP FOR EASTERN NORTH CAROLINA NATIONAL WEATHER SERVICE NEWPORT/MOREHEAD CITY NC 200 PM EST FRI FEB 24 2017 NOTE: "FAIR" INDICATES FEW OR NO CLOUDS BELOW 12,000 FEET WITH NO SIGNIFICANT WEATHER AND/OR OBSTRUCTIONS TO VISIBILITY NCZ015>017-031-032-045>047-102-103-242000- NORTH COAST CITY SKY/WX TMP DP RH WIND PRES REMARKS EDENTON PTSUNNY 77 60 54 SE6 29.88F ELIZABETH CITY PTSUNNY 74 60 61 E14 29.89F KITTY HAWK NOT AVBL MANTEO MOSUNNY 71 59 66 E6 29.90F $$ NCZ045>047-081-094-103-104-242000- CENTRAL COAST CITY SKY/WX TMP DP RH WIND PRES REMARKS FRISCO MOSUNNY 74 60 61 SE10 29.88F HAZE $$ NCZ095-097-098-100-101-242000- SOUTHERN COAST CITY SKY/WX TMP DP RH WIND PRES REMARKS BEAUFORT PTSUNNY 73 63 70 E7 29.86F CEDAR ISLAND NOT AVBL JACKSONVILLE MOSUNNY 77 60 55 SE10 29.85F PINEY ISLAND CLOUDY N/A N/A N/A NE10 29.87F WILMINGTON SUNNY 73 61 65 E10 29.86F $$ NCZ011>013-027>030-043-044-078>080-089-090>093-098-242000- COASTAL PLAIN CITY SKY/WX TMP DP RH WIND PRES REMARKS AHOSKIE N/A 75 57 53 S3 29.87F CLINTON SUNNY 76 58 54 CALM 29.85F ELIZABETHTOWN SUNNY 79 57 47 E5 29.85F GOLDSBORO MOSUNNY 79 56 45 SE6 29.84F GREENVILLE MOSUNNY 79 59 50 SE5 29.89F HAVELOCK PTSUNNY 74 61 63 NE12 29.87F KENANSVILLE NOT AVBL KINSTON MOSUNNY 77 57 50 S6 29.86F NEW BERN SUNNY 77 59 53 SE9 29.87F RICHLANDS PTSUNNY 77 58 51 E7 29.86F ROCKY MOUNT MOSUNNY 76 57 51 VRB5 29.86F WASHINGTON SUNNY 77 56 49 S10 29.87F WHITEVILLE MOSUNNY 78 57 48 CALM 29.84F $$ AMZ130-135-150-152-154-156-158-170-250-252-270-ANZ085-086-088-633-658-670-242000- MARINE OBSERVATIONS STATION/POSITION TIME TEMP WIND PRES WAVE SWELL AIR SEA DIR/SP/G HT/PER HT/PER (UTC) (F) (DEG/KT/KT) (MB) (FT/S) (FT/S) CHESAPEAKE LIGHT NOT AVBL 64 E VA BEACH 1850 60 56 80/ 6/ 6 1012.8 5/10 5/10 DUCK 1848 63 50 80/ 4/ 4 1012.0 2 E DUCK 1900 54 N/A 4/11 2/11 OREGON INLET 1842 64 55 50/ 4/ 6 1012.3 13E OREGON INLT NOT AVBL HATTERAS CG 1848 71 62 110/ 8/ 12 1011.5 DIAMOND BUOY 1750 72 74 120/ 16/ 19 1011.9 7/10 5/10 CAPE LOOKOUT 1900 67 60/ 6/ 7 1010.8 BEAUFORT LAB 1848 71 60 110/ 15/ 19 1010.3 30 SE NEW RVR IN 1808 67 20/ 8/ 12 1011.5 30 SE NEW RVR IN 1843 70 N/A 8/10 3/11 27 SE WRIGHTSVLE 1808 67 67 50/ 10/ 14 1010.8 5 SE WRIGHTSVLE 1808 62 59 40/ 8/ 14 1011.5 225 S CAPE HAT 1850 69 70 90/ 12/ 16 1006.2 12/10 11/10 41 SE CHARLESTON 1850 68 71 20/ 14/ 16 1010.0 8/10 8/10 $$

USA.gov is the U.S. government's official web portal to all federal, state and local government web resources and services.